When you browse on this site, cookies collect data to enhance your experience and personalize the content and advertising you see.
Visit our Privacy Policy to learn more. By continuing to use the site, you agree to this use of cookies and data.

Météo par heure à Batna

Ce jour, 29 Septembre, Mardi

Heure Température Précipitation Vent Pression Humidité
00:00 +15°C° 0 mm 1 m/s 672 mmHg 41%
01:00 +15°C° 0 mm 1 m/s 672 mmHg 40%
02:00 +15°C° 0 mm 1 m/s 672 mmHg 39%
03:00 +15°C° 0 mm 1 m/s 672 mmHg 38%
04:00 +15°C° 0 mm 1 m/s 672 mmHg 37%
05:00 +15°C° 0 mm 1 m/s 672 mmHg 37%
06:00 +15°C° 0 mm 1 m/s 673 mmHg 36%
07:00 +17°C° 0 mm 2 m/s 673 mmHg 33%
08:00 +20°C° 0 mm 2 m/s 674 mmHg 30%
09:00 +23°C° 0 mm 2 m/s 675 mmHg 27%
10:00 +24°C° 0 mm 3 m/s 675 mmHg 27%
11:00 +25°C° 0 mm 4 m/s 675 mmHg 27%
12:00 +27°C° 0 mm 5 m/s 675 mmHg 27%
13:00 +27°C° 0 mm 5 m/s 675 mmHg 29%
14:00 +26°C° 0 mm 5 m/s 674 mmHg 30%
15:00 +26°C° 0 mm 5 m/s 674 mmHg 31%
16:00 +25°C° 0 mm 4 m/s 673 mmHg 35%
17:00 +24°C° 0 mm 3 m/s 673 mmHg 40%
18:00 +21°C° 0 mm 2 m/s 673 mmHg 44%
19:00 +21°C° 0 mm 2 m/s 673 mmHg 44%
20:00 +21°C° 0 mm 2 m/s 673 mmHg 45%
21:00 +20°C° 0 mm 2 m/s 673 mmHg 45%
22:00 +20°C° 0 mm 2 m/s 672 mmHg 45%
23:00 +20°C° 0 mm 3 m/s 672 mmHg 45%

Demain, 30 Septembre, Mercredi

Heure Température Précipitation Vent Pression Humidité
00:00 +20°C° 0 mm 3 m/s 672 mmHg 45%
01:00 +20°C° 0 mm 3 m/s 671 mmHg 47%
02:00 +19°C° 0 mm 3 m/s 671 mmHg 49%
03:00 +19°C° 0 mm 3 m/s 671 mmHg 51%
04:00 +19°C° 0 mm 3 m/s 671 mmHg 52%
05:00 +19°C° 0 mm 3 m/s 671 mmHg 53%
06:00 +19°C° 0 mm 3 m/s 671 mmHg 54%
07:00 +21°C° 0 mm 4 m/s 671 mmHg 47%
08:00 +23°C° 0 mm 4 m/s 672 mmHg 40%
09:00 +27°C° 0 mm 5 m/s 673 mmHg 33%
10:00 +28°C° 0 mm 5 m/s 673 mmHg 31%
11:00 +28°C° 0 mm 5 m/s 672 mmHg 29%
12:00 +29°C° 0 mm 5 m/s 672 mmHg 26%
13:00 +29°C° 0 mm 5 m/s 672 mmHg 27%
14:00 +29°C° 0 mm 5 m/s 671 mmHg 27%
15:00 +29°C° 0 mm 5 m/s 671 mmHg 27%
16:00 +28°C° 0 mm 4 m/s 671 mmHg 31%
17:00 +26°C° 0 mm 3 m/s 670 mmHg 35%
18:00 +25°C° 0 mm 2 m/s 670 mmHg 38%
19:00 +24°C° 0 mm 1 m/s 670 mmHg 40%
20:00 +24°C° 0 mm 1 m/s 670 mmHg 42%
21:00 +23°C° 0 mm 1 m/s 670 mmHg 44%
22:00 +21°C° 0 mm 0 m/s 669 mmHg 46%
23:00 +20°C° 0 mm 0 m/s 669 mmHg 49%

Après-demain, 1 Octobre, Jeudi

Heure Température Précipitation Vent Pression Humidité
00:00 +20°C° 0 mm 0 m/s 669 mmHg 51%
01:00 +20°C° 0 mm 0 m/s 668 mmHg 52%
02:00 +19°C° 0 mm 0 m/s 668 mmHg 52%
03:00 +21°C° 0 mm 1 m/s 667 mmHg 52%
04:00 +21°C° 0 mm 1 m/s 667 mmHg 53%
05:00 +19°C° 0 mm 0 m/s 667 mmHg 54%
06:00 +19°C° 0 mm 0 m/s 667 mmHg 56%
07:00 +23°C° 0 mm 1 m/s 668 mmHg 49%
08:00 +24°C° 0 mm 1 m/s 668 mmHg 42%
09:00 +26°C° 0 mm 1 m/s 669 mmHg 35%
10:00 +27°C° 0 mm 2 m/s 669 mmHg 32%
11:00 +28°C° 0 mm 3 m/s 669 mmHg 28%
12:00 +30°C° 0 mm 4 m/s 669 mmHg 25%
13:00 +29°C° 0 mm 5 m/s 669 mmHg 24%
14:00 +29°C° 0 mm 5 m/s 668 mmHg 23%
15:00 +29°C° 0 mm 5 m/s 668 mmHg 23%
16:00 +28°C° 0 mm 4 m/s 668 mmHg 26%
17:00 +26°C° 0 mm 3 m/s 668 mmHg 30%
18:00 +24°C° 0 mm 2 m/s 667 mmHg 34%
19:00 +24°C° 0 mm 2 m/s 667 mmHg 38%
20:00 +23°C° 0 mm 1 m/s 668 mmHg 41%
21:00 +22°C° 0 mm 1 m/s 668 mmHg 45%
22:00 +21°C° 0 mm 1 m/s 667 mmHg 46%
23:00 +21°C° 0 mm 1 m/s 667 mmHg 47%

2 Octobre, Vendredi

Heure Température Précipitation Vent Pression Humidité
00:00 +20°C° 0 mm 1 m/s 666 mmHg 48%
01:00 +20°C° 0 mm 1 m/s 666 mmHg 46%
02:00 +20°C° 0 mm 1 m/s 665 mmHg 44%
03:00 +19°C° 0 mm 2 m/s 665 mmHg 41%
04:00 +18°C° 0 mm 2 m/s 665 mmHg 39%
05:00 +18°C° 0 mm 2 m/s 665 mmHg 37%
06:00 +18°C° 0 mm 3 m/s 665 mmHg 35%
07:00 +20°C° 0 mm 4 m/s 665 mmHg 31%
08:00 +22°C° 0 mm 5 m/s 666 mmHg 27%
09:00 +24°C° 0 mm 6 m/s 666 mmHg 23%
10:00 +26°C° 0 mm 7 m/s 666 mmHg 23%
11:00 +27°C° 0 mm 8 m/s 666 mmHg 23%
12:00 +28°C° 0 mm 8 m/s 666 mmHg 24%
13:00 +28°C° 0 mm 9 m/s 665 mmHg 26%
14:00 +28°C° 0 mm 9 m/s 665 mmHg 27%
15:00 +28°C° 0 mm 9 m/s 664 mmHg 29%
16:00 +26°C° 0 mm 7 m/s 664 mmHg 32%
17:00 +25°C° 0 mm 5 m/s 664 mmHg 34%
18:00 +24°C° 0 mm 3 m/s 663 mmHg 36%
19:00 +24°C° 0 mm 3 m/s 663 mmHg 35%
20:00 +24°C° 0 mm 3 m/s 664 mmHg 34%
21:00 +24°C° 0 mm 3 m/s 664 mmHg 33%
22:00 +22°C° 0 mm 3 m/s 663 mmHg 34%
23:00 +22°C° 0 mm 3 m/s 663 mmHg 35%

3 Octobre, Samedi

Heure Température Précipitation Vent Pression Humidité
00:00 +22°C° 0 mm 3 m/s 663 mmHg 35%
01:00 +20°C° 0 mm 3 m/s 662 mmHg 40%
02:00 +19°C° 0 mm 2 m/s 662 mmHg 45%
03:00 +19°C° 0 mm 1 m/s 662 mmHg 49%
04:00 +19°C° 0 mm 1 m/s 662 mmHg 52%
05:00 +19°C° 0 mm 1 m/s 662 mmHg 54%
06:00 +18°C° 0 mm 1 m/s 662 mmHg 57%
07:00 +19°C° 0 mm 1 m/s 663 mmHg 54%
08:00 +19°C° 0 mm 2 m/s 664 mmHg 52%
09:00 +21°C° 0 mm 2 m/s 664 mmHg 49%
10:00 +22°C° 0 mm 3 m/s 664 mmHg 44%
11:00 +23°C° 0 mm 4 m/s 665 mmHg 40%
12:00 +25°C° 0 mm 5 m/s 665 mmHg 35%
13:00 +25°C° 0 mm 4 m/s 665 mmHg 36%
14:00 +25°C° 0 mm 4 m/s 665 mmHg 37%
15:00 +23°C° 0 mm 4 m/s 665 mmHg 38%
16:00 +22°C° 0 mm 3 m/s 665 mmHg 40%
17:00 +21°C° 0 mm 3 m/s 665 mmHg 42%
18:00 +19°C° 0 mm 2 m/s 666 mmHg 45%
19:00 +18°C° 0 mm 2 m/s 666 mmHg 45%
20:00 +18°C° 0 mm 2 m/s 666 mmHg 45%
21:00 +18°C° 0 mm 1 m/s 666 mmHg 45%
22:00 +16°C° 0 mm 1 m/s 666 mmHg 46%
23:00 +15°C° 0 mm 1 m/s 666 mmHg 46%

4 Octobre, Dimanche

Heure Température Précipitation Vent Pression Humidité
00:00 +15°C° 0 mm 1 m/s 666 mmHg 47%
01:00 +14°C° 0 mm 1 m/s 666 mmHg 48%
02:00 +14°C° 0 mm 1 m/s 666 mmHg 50%
03:00 +14°C° 0 mm 2 m/s 666 mmHg 51%
04:00 +14°C° 0 mm 1 m/s 666 mmHg 53%
05:00 +14°C° 0 mm 1 m/s 666 mmHg 54%
06:00 +14°C° 0 mm 1 m/s 667 mmHg 55%
07:00 +16°C° 0 mm 1 m/s 667 mmHg 50%
08:00 +18°C° 0 mm 2 m/s 668 mmHg 45%
09:00 +20°C° 0 mm 2 m/s 669 mmHg 39%
10:00 +21°C° 0 mm 3 m/s 669 mmHg 36%
11:00 +23°C° 0 mm 4 m/s 669 mmHg 32%
12:00 +25°C° 0 mm 5 m/s 670 mmHg 28%
13:00 +25°C° 0 mm 5 m/s 669 mmHg 27%
14:00 +25°C° 0 mm 5 m/s 669 mmHg 27%
15:00 +25°C° 0 mm 5 m/s 668 mmHg 26%
16:00 +22°C° 0 mm 4 m/s 668 mmHg 27%
17:00 +21°C° 0 mm 4 m/s 668 mmHg 28%
18:00 +19°C° 0 mm 3 m/s 668 mmHg 28%
19:00 +18°C° 0 mm 2 m/s 668 mmHg 32%
20:00 +17°C° 0 mm 2 m/s 668 mmHg 36%
21:00 +18°C° 0 mm 1 m/s 668 mmHg 40%
22:00 +16°C° 0 mm 1 m/s 668 mmHg 45%
23:00 +15°C° 0 mm 1 m/s 668 mmHg 49%
Voir plus